Regional Weather Roundup
Issued by NWS

Home | Current Version | Previous Version | Graphics & Text | Print | Product List | Glossary On
Versions: 1 2 3 4 5 6 7 8 9 10 11 12 13 14 15 16 17 18 19 20 21 22 23 24 25 26 27 28 29 30 31 32 33 34 35 36 37 38 39 40 41 42 43 44 45 46 47 48 49 50
000
ASUS43 KIND 301109
RWRIN

WEATHER ROUNDUP FOR INDIANA
NATIONAL WEATHER SERVICE INDIANAPOLIS IN
700 AM EDT SAT MAY 30 2015

NOTE: "FAIR" INDICATES FEW OR NO CLOUDS BELOW 12,000 FEET WITH NO
SIGNIFICANT WEATHER AND/OR OBSTRUCTIONS TO VISIBILITY.

* - STATION DOES NOT REPORT WEATHER SUCH AS PRECIPITATION OR FOG.

+ - STATION NOT QUALITY CONTROLLED BY THE NATIONAL WEATHER SERVICE.
    USE DATA WITH CAUTION...ESPECIALLY DEWPOINT AND RELATIVE
    HUMIDITY OBSERVATIONS.

INZ001>003-010>013-019-020-301200-
NORTHWEST INDIANA

CITY           SKY/WX    TMP DP  RH WIND       PRES   REMARKS
KNOX *+        CLOUDY    66  66 100 S3        29.99R
LA PORTE +     LGT RAIN  69  69 100 W3        29.99S
MICHIGAN CITY+ RAIN      68  68 100 SW6       29.99R
MONTICELLO +   CLOUDY    68  66  92 S5        30.00R
RENSSELAER +   CLOUDY    68  68 100 S5        29.99S
VALPARAISO     LGT RAIN  68  66  93 NW7       29.98F FOG

$$

LMZ046-743>745-301200-
SOUTHERN LAKE MICHIGAN

STATION/POSITION TIME  TEMP    WIND        PRES    WAVE
                       AIR SEA DIR/SP/G            HT
                 (UTC) (F)     (DEG/KT/KT) (MB)    (FT)
BURNS HARBOR     1100   68     210/  9/ 11 1015.6S
MICHIGAN CITY    1100   68     170/ 10/ 13   N/A
5NW MICH CITY    1100   62 56  220/  8/  8   N/A     1

$$

INZ004-005-014>016-021>024-301200-
NORTH CENTRAL INDIANA

CITY           SKY/WX    TMP DP  RH WIND       PRES   REMARKS
GOSHEN         MOCLDY    69  65  86 SW9       29.99R
LOGANSPORT +   CLOUDY    68  63  83 S6        30.02R
PERU/GRISSOM   CLOUDY    68  66  94 S6        30.00R
ROCHESTER +    CLOUDY    72  68  88 SW6       30.01R
SOUTH BEND     RAIN      68  66  93 SW9       29.99R FOG
WARSAW +       MOCLDY    68  64  88 SW5       30.01R

$$

INZ006>009-017-018-025>027-301200-
NORTHEAST INDIANA

CITY           SKY/WX    TMP DP  RH WIND       PRES   REMARKS
ANGOLA *+      MOCLDY    70  61  73 SW6       30.00R
AUBURN +       PTCLDY    68  63  83 S3        30.01R
FORT WAYNE     PTCLDY    68  65  90 S7        30.02R
HUNTINGTON +   CLEAR     67  64  92 CALM      30.01R

$$

INZ028-029-035-036-043>045-051>053-301200-
WEST CENTRAL INDIANA

CITY           SKY/WX    TMP DP  RH WIND       PRES   REMARKS
CRAWFORDSVL +  CLOUDY    65  62  87 CALM      30.02R FOG
GREENCASTLE +  CLEAR     66  63  88 CALM      30.02S
LAFAYETTE      CLOUDY    68  64  87 S5        30.00R
TERRE HAUTE    PTCLDY    66  65  96 CALM      30.00S

$$

INZ030>032-037>040-046>048-054>057-064-065-301200-
CENTRAL INDIANA

CITY           SKY/WX    TMP DP  RH WIND       PRES   REMARKS
CP ATTERBURY + CLEAR     63  61  94 SE5       30.04S FOG
FISHERS *+     PTCLDY    68  68 100 SE5       30.03S
FRANKFORT +    PTCLDY    66  66 100 CALM      30.03S FOG
GREENWOOD *+   CLEAR     68  64  88 CALM      30.04R
INDIANAPOLIS   PTCLDY    68  65  90 SE6       30.01R
-EAGLE CREEK   PTCLDY    68  66  93 S3        30.02R
KOKOMO *+      MOCLDY    66  64  94 SW7       30.02R
MARION +       CLEAR     65  64  93 S6        30.04R
MT COMFORT *+  PTCLDY    66 N/A N/A S5        30.04S
SHELBYVILLE    PTCLDY    70  66  87 S7        30.03S
ZIONSVILLE +   CLEAR     68  64  88 S5        30.03S

$$

INZ033-034-041-042-049-050-058-059-301200-
EAST CENTRAL INDIANA

CITY           SKY/WX    TMP DP  RH WIND       PRES   REMARKS
MUNCIE         CLEAR     69  65  86 S7        30.04R

$$

INZ060-061-067>069-081>083-085>088-301200-
SOUTHWEST INDIANA

CITY           SKY/WX    TMP DP  RH WIND       PRES   REMARKS
EVANSVILLE     PTCLDY    70  66  87 SE6       30.01S
HUNTINGBURG *+ CLEAR     68  64  88 S7        30.03S
WASHINGTON +   CLEAR     69  65  88 S7        30.00S

$$

INZ062-063-066-070>080-084-089>092-301200-
SOUTH CENTRAL AND SOUTHEAST INDIANA

CITY           SKY/WX    TMP DP  RH WIND       PRES   REMARKS
BLOOMINGTON    PTCLDY    69  66  90 S9        30.02S
MADISON *+     CLEAR     68  64  88 S5        30.08S
NORTH VERNON + CLEAR     68  68 100 S5        30.06S
SEYMOUR +      PTCLDY    70  66  88 S7        30.05R

$$




USA.gov is the U.S. government's official web portal to all federal, state and local government web resources and services.